• In Belarus
  • List of Countries
  • For 7 days
  • Water Temperature
  • Satellite Maps
  • Weather Map
  • Weather Widgets
  • user-avatar
    Login

    Hourly Weather Dolina

    Today, 24 September, Monday

    Time Temperature Precipitation Wind Pressure Humidity
    00:00 +12°C° 0 mm 5 mps 722 mmHg 86%
    01:00 +12°C° 0 mm 5 mps 720 mmHg 85%
    02:00 +13°C° 0 mm 6 mps 719 mmHg 84%
    03:00 +12°C° 0 mm 7 mps 718 mmHg 83%
    04:00 +12°C° 0 mm 8 mps 717 mmHg 81%
    05:00 +12°C° 0 mm 10 mps 715 mmHg 76%
    06:00 +12°C° 0 mm 10 mps 712 mmHg 78%
    07:00 +14°C° 0 mm 5 mps 712 mmHg 81%
    08:00 +16°C° 0 mm 1 mps 713 mmHg 81%
    09:00 +14°C° 0.4 mm 11 mps 713 mmHg 85%
    10:00 +17°C° 0 mm 9 mps 713 mmHg 82%
    11:00 +18°C° 0 mm 12 mps 711 mmHg 76%
    12:00 +19°C° 0 mm 12 mps 712 mmHg 75%
    13:00 +17°C° 0.3 mm 10 mps 713 mmHg 89%
    14:00 +13°C° 0.1 mm 11 mps 715 mmHg 74%
    15:00 +11°C° 0 mm 10 mps 717 mmHg 77%
    16:00 +11°C° 0 mm 9 mps 717 mmHg 78%
    17:00 +11°C° 0 mm 8 mps 718 mmHg 77%
    18:00 +10°C° 0 mm 9 mps 718 mmHg 79%
    19:00 +9°C° 0 mm 8 mps 719 mmHg 78%
    20:00 +8°C° 0 mm 7 mps 720 mmHg 80%
    21:00 +7°C° 0 mm 8 mps 721 mmHg 83%
    22:00 +6°C° 0 mm 8 mps 721 mmHg 86%
    23:00 +5°C° 0 mm 8 mps 721 mmHg 89%

    Tomorrow, 25 September, Tuesday

    Time Temperature Precipitation Wind Pressure Humidity
    00:00 +6°C° 0 mm 8 mps 722 mmHg 89%
    01:00 +6°C° 0 mm 8 mps 722 mmHg 90%
    02:00 +5°C° 0 mm 8 mps 723 mmHg 89%

    Day after tomorrow, 26 September, Wednesday

    Time Temperature Precipitation Wind Pressure Humidity

    27 September, Thursday

    Time Temperature Precipitation Wind Pressure Humidity

    28 September, Friday

    Time Temperature Precipitation Wind Pressure Humidity

    29 September, Saturday

    Time Temperature Precipitation Wind Pressure Humidity
    Show more

    3.3.7123123